TimeCDT,TemperatureF,Dew PointF,Humidity,Sea Level PressureIn,VisibilityMPH,Wind Direction,Wind SpeedMPH,Gust SpeedMPH,PrecipitationIn,Events,Conditions,WindDirDegrees,DateUTC
12:53 AM,70.0,48.9,47,29.77,10.0,SW,10.4,-,N/A,,Clear,230,2013-05-15 05:53:00
1:53 AM,68.0,50.0,52,29.79,10.0,WSW,9.2,-,N/A,,Clear,240,2013-05-15 06:53:00
2:53 AM,70.0,51.1,51,29.79,10.0,WSW,10.4,-,N/A,,Clear,240,2013-05-15 07:53:00
3:53 AM,70.0,52.0,53,29.79,10.0,SW,16.1,-,N/A,,Clear,230,2013-05-15 08:53:00
4:53 AM,70.0,52.0,53,29.79,10.0,SW,12.7,-,N/A,,Clear,220,2013-05-15 09:53:00
5:53 AM,68.0,53.1,59,29.80,10.0,SW,10.4,-,N/A,,Clear,220,2013-05-15 10:53:00
6:53 AM,64.9,54.0,68,29.83,10.0,WNW,5.8,-,N/A,,Clear,300,2013-05-15 11:53:00
7:53 AM,68.0,54.0,61,29.86,10.0,NW,9.2,-,N/A,,Clear,310,2013-05-15 12:53:00
8:53 AM,69.1,48.9,49,29.88,9.0,NNE,9.2,-,N/A,,Clear,20,2013-05-15 13:53:00
9:53 AM,71.1,50.0,47,29.87,10.0,NE,9.2,-,N/A,,Clear,40,2013-05-15 14:53:00
10:53 AM,73.9,51.1,45,29.88,10.0,ENE,5.8,-,N/A,,Clear,60,2013-05-15 15:53:00
11:53 AM,75.9,52.0,43,29.89,10.0,NNE,9.2,-,N/A,,Clear,30,2013-05-15 16:53:00
12:53 PM,73.9,53.1,48,29.88,10.0,NE,11.5,-,N/A,,Clear,50,2013-05-15 17:53:00
1:53 PM,75.0,53.1,46,29.88,10.0,NE,11.5,-,N/A,,Clear,40,2013-05-15 18:53:00
2:53 PM,77.0,54.0,45,29.87,10.0,NE,11.5,-,N/A,,Clear,50,2013-05-15 19:53:00
3:53 PM,77.0,48.9,37,29.84,10.0,East,5.8,-,N/A,,Clear,100,2013-05-15 20:53:00
4:53 PM,79.0,54.0,42,29.83,10.0,ENE,4.6,-,N/A,,Clear,70,2013-05-15 21:53:00
5:53 PM,78.1,53.1,42,29.83,10.0,East,4.6,-,N/A,,Clear,90,2013-05-15 22:53:00
6:53 PM,77.0,55.0,47,29.82,10.0,ENE,4.6,-,N/A,,Clear,60,2013-05-15 23:53:00
7:53 PM,71.1,54.0,55,29.81,10.0,NE,5.8,-,N/A,,Clear,50,2013-05-16 00:53:00
8:53 PM,69.1,52.0,54,29.81,10.0,ENE,5.8,-,N/A,,Clear,60,2013-05-16 01:53:00
9:53 PM,71.1,51.1,49,29.84,10.0,East,4.6,-,N/A,,Overcast,90,2013-05-16 02:53:00
10:53 PM,70.0,52.0,53,29.85,10.0,Calm,Calm,-,N/A,,Scattered Clouds,0,2013-05-16 03:53:00
11:53 PM,68.0,52.0,56,29.84,10.0,East,3.5,-,N/A,,Clear,100,2013-05-16 04:53:00